Location: Bois de la Silve
(44.4667°N, 6.7833°E)
Time: 20:04:20
(UTC+00:00)

Resurs 1-4 Rocket - Pass Details

Date: 14 July 2020
Orbit: 799 x 814 km, 98.6° (Epoch: 14 August)

Event Time Altitude Azimuth Distance (km) Brightness Sun altitude
Rises 01:22:24 0° 12° (NNE) 3,347 6.8 -19.8°
Reaches altitude 10° 01:24:45 10° 12° (NNE) 2,410 5.7 -19.6°
Maximum altitude 01:30:05 80° 286° (WNW) 829 2.1 -19.2°
Enters shadow 01:32:22 36° 205° (SSW) 1,272 2.6 -19.0°
